Time,TemperatureF,DewpointF,PressureIn,WindDirection,WindDirectionDegrees,WindSpeedMPH,WindSpeedGustMPH,Humidity,HourlyPrecipIn,Conditions,Clouds,dailyrainin,SoftwareType,DateUTC
2013-08-11 00:02:00,60.4,55.9,29.93,ENE,67,0.0,-999.0,85,-99.99,,,0.00,Acu-Link.com,2013-08-11 05:02:00,
2013-08-11 00:17:00,60.8,56.3,29.93,ESE,112,0.0,-999.0,85,-99.99,,,0.00,Acu-Link.com,2013-08-11 05:17:00,
2013-08-11 00:47:00,60.4,55.9,29.93,SE,135,0.0,-999.0,85,-99.99,,,0.00,Acu-Link.com,2013-08-11 05:47:00,
2013-08-11 01:18:00,60.3,55.8,29.94,WSW,247,0.0,-999.0,85,-99.99,,,0.00,Acu-Link.com,2013-08-11 06:18:00,
2013-08-11 01:33:00,59.7,55.2,29.94,ESE,112,0.0,-999.0,85,-99.99,,,0.00,Acu-Link.com,2013-08-11 06:33:00,
2013-08-11 01:48:00,59.4,55.2,29.94,East,90,0.0,-999.0,86,-99.99,,,0.00,Acu-Link.com,2013-08-11 06:48:00,
2013-08-11 02:03:00,59.2,55.0,29.94,East,90,0.0,-999.0,86,-99.99,,,0.00,Acu-Link.com,2013-08-11 07:03:00,
2013-08-11 02:19:00,60.1,55.9,29.94,NNW,337,0.0,-999.0,86,-99.99,,,0.00,Acu-Link.com,2013-08-11 07:19:00,
2013-08-11 03:05:00,59.0,55.1,29.92,ENE,67,0.0,-999.0,87,-99.99,,,0.00,Acu-Link.com,2013-08-11 08:05:00,
2013-08-11 03:37:00,59.0,55.1,29.92,WSW,247,0.0,-999.0,87,-99.99,,,0.00,Acu-Link.com,2013-08-11 08:37:00,
2013-08-11 03:52:00,58.5,54.6,29.92,West,270,0.0,-999.0,87,-99.99,,,0.00,Acu-Link.com,2013-08-11 08:52:00,
2013-08-11 04:22:00,58.5,54.6,29.93,West,270,0.0,-999.0,87,-99.99,,,0.00,Acu-Link.com,2013-08-11 09:22:00,
2013-08-11 04:38:00,58.8,54.9,29.93,WSW,247,0.0,-999.0,87,-99.99,,,0.00,Acu-Link.com,2013-08-11 09:38:00,
2013-08-11 04:53:00,59.2,55.3,29.92,WSW,247,0.0,-999.0,87,-99.99,,,0.00,Acu-Link.com,2013-08-11 09:53:00,
2013-08-11 05:08:00,59.2,55.3,29.92,West,270,0.0,-999.0,87,-99.99,,,0.00,Acu-Link.com,2013-08-11 10:08:00,
2013-08-11 05:23:00,59.4,55.5,29.92,WSW,247,0.0,-999.0,87,-99.99,,,0.00,Acu-Link.com,2013-08-11 10:23:00,
2013-08-11 05:38:00,59.2,55.3,29.91,NW,315,0.0,-999.0,87,-99.99,,,0.00,Acu-Link.com,2013-08-11 10:38:00,
2013-08-11 05:53:00,59.2,55.3,29.91,NW,315,0.0,-999.0,87,-99.99,,,0.00,Acu-Link.com,2013-08-11 10:53:00,
2013-08-11 06:24:00,58.8,54.9,29.92,West,270,0.0,-999.0,87,-99.99,,,0.00,Acu-Link.com,2013-08-11 11:24:00,
2013-08-11 06:39:00,58.6,55.1,29.91,WNW,292,0.0,-999.0,88,-99.99,,,0.00,Acu-Link.com,2013-08-11 11:39:00,
2013-08-11 06:54:00,58.6,55.1,29.91,SW,225,0.0,-999.0,88,-99.99,,,0.00,Acu-Link.com,2013-08-11 11:54:00,
2013-08-11 07:40:00,59.5,55.9,29.91,NE,45,0.0,-999.0,88,-99.99,,,0.00,Acu-Link.com,2013-08-11 12:40:00,
2013-08-11 07:55:00,60.4,56.8,29.91,NNW,337,0.0,-999.0,88,-99.99,,,0.00,Acu-Link.com,2013-08-11 12:55:00,
2013-08-11 08:10:00,61.5,57.9,29.91,NNE,22,0.0,-999.0,88,-99.99,,,0.00,Acu-Link.com,2013-08-11 13:10:00,
2013-08-11 08:25:00,63.7,59.4,29.91,ENE,67,0.0,-999.0,86,-99.99,,,0.00,Acu-Link.com,2013-08-11 13:25:00,
2013-08-11 08:40:00,64.8,60.2,29.92,ENE,67,0.0,-999.0,85,-99.99,,,0.00,Acu-Link.com,2013-08-11 13:40:00,
2013-08-11 09:11:00,68.2,62.5,29.92,North,0,0.0,-999.0,82,-99.99,,,0.00,Acu-Link.com,2013-08-11 14:11:00,
2013-08-11 09:41:00,70.7,62.0,29.92,South,180,0.0,-999.0,74,-99.99,,,0.00,Acu-Link.com,2013-08-11 14:41:00,
2013-08-11 09:56:00,72.9,62.5,29.92,WSW,247,0.0,-999.0,70,-99.99,,,0.00,Acu-Link.com,2013-08-11 14:56:00,
2013-08-11 10:12:00,74.3,63.0,29.93,NNE,22,1.7,-999.0,68,-99.99,,,0.00,Acu-Link.com,2013-08-11 15:12:00,
2013-08-11 10:27:00,74.8,62.7,29.93,WNW,292,0.0,-999.0,66,-99.99,,,0.00,Acu-Link.com,2013-08-11 15:27:00,
2013-08-11 10:42:00,75.7,63.1,29.93,ESE,112,0.0,-999.0,65,-99.99,,,0.00,Acu-Link.com,2013-08-11 15:42:00,
2013-08-11 10:57:00,73.2,62.4,29.93,ENE,67,1.7,-999.0,69,-99.99,,,0.00,Acu-Link.com,2013-08-11 15:57:00,
2013-08-11 11:12:00,74.3,63.0,29.92,ENE,67,0.0,-999.0,68,-99.99,,,0.00,Acu-Link.com,2013-08-11 16:12:00,
2013-08-11 11:58:00,76.3,63.2,29.92,NNE,22,1.7,-999.0,64,-99.99,,,0.00,Acu-Link.com,2013-08-11 16:58:00,
2013-08-11 12:13:00,77.0,63.0,29.92,WSW,247,0.0,-999.0,62,-99.99,,,0.00,Acu-Link.com,2013-08-11 17:13:00,
2013-08-11 12:59:00,73.9,64.3,29.92,SE,135,1.7,-999.0,72,-99.99,,,0.00,Acu-Link.com,2013-08-11 17:59:00,
2013-08-11 13:14:00,77.9,63.8,29.92,North,0,3.7,-999.0,62,-99.99,,,0.00,Acu-Link.com,2013-08-11 18:14:00,
2013-08-11 13:29:00,75.9,63.7,29.92,WNW,292,1.7,-999.0,66,-99.99,,,0.00,Acu-Link.com,2013-08-11 18:29:00,
2013-08-11 14:00:00,79.5,63.9,29.91,SSE,157,0.0,-999.0,59,-99.99,,,0.00,Acu-Link.com,2013-08-11 19:00:00,
2013-08-11 14:15:00,79.0,64.4,29.90,NE,45,0.0,-999.0,61,-99.99,,,0.00,Acu-Link.com,2013-08-11 19:15:00,
2013-08-11 15:01:00,80.6,62.4,29.91,WNW,292,1.1,-999.0,54,-99.99,,,0.00,Acu-Link.com,2013-08-11 20:01:00,
2013-08-11 15:31:00,75.7,63.1,29.91,SSE,157,0.0,-999.0,65,-99.99,,,0.00,Acu-Link.com,2013-08-11 20:31:00,
2013-08-11 15:47:00,77.4,61.4,29.91,South,180,0.0,-999.0,58,-99.99,,,0.00,Acu-Link.com,2013-08-11 20:47:00,
2013-08-11 16:02:00,79.2,62.1,29.90,NNW,337,0.0,-999.0,56,-99.99,,,0.00,Acu-Link.com,2013-08-11 21:02:00,
2013-08-11 16:17:00,79.2,60.6,29.91,NE,45,2.7,-999.0,53,-99.99,,,0.00,Acu-Link.com,2013-08-11 21:17:00,
2013-08-11 16:47:00,79.3,61.7,29.91,ENE,67,0.0,-999.0,55,-99.99,,,0.00,Acu-Link.com,2013-08-11 21:47:00,
2013-08-11 17:03:00,79.9,61.2,29.90,NE,45,1.7,-999.0,53,-99.99,,,0.00,Acu-Link.com,2013-08-11 22:03:00,
2013-08-11 17:18:00,79.9,60.1,29.90,NE,45,2.7,-999.0,51,-99.99,,,0.00,Acu-Link.com,2013-08-11 22:18:00,
2013-08-11 17:48:00,79.3,60.7,29.89,North,0,1.7,-999.0,53,-99.99,,,0.00,Acu-Link.com,2013-08-11 22:48:00,
2013-08-11 18:18:00,76.6,60.7,29.89,ESE,112,0.0,-999.0,58,-99.99,,,0.00,Acu-Link.com,2013-08-11 23:18:00,
2013-08-11 18:34:00,75.9,62.8,29.89,North,0,0.0,-999.0,64,-99.99,,,0.00,Acu-Link.com,2013-08-11 23:34:00,
2013-08-11 19:04:00,76.1,61.7,29.88,East,90,0.0,-999.0,61,-99.99,,,0.00,Acu-Link.com,2013-08-12 00:04:00,
2013-08-11 19:34:00,73.4,62.6,29.88,SE,135,0.0,-999.0,69,-99.99,,,0.00,Acu-Link.com,2013-08-12 00:34:00,
2013-08-11 19:50:00,72.7,62.7,29.88,SE,135,0.0,-999.0,71,-99.99,,,0.00,Acu-Link.com,2013-08-12 00:50:00,
2013-08-11 20:05:00,71.6,63.6,29.88,SSE,157,0.0,-999.0,76,-99.99,,,0.00,Acu-Link.com,2013-08-12 01:05:00,
2013-08-11 20:20:00,70.5,62.9,29.88,SSE,157,0.0,-999.0,77,-99.99,,,0.00,Acu-Link.com,2013-08-12 01:20:00,
2013-08-11 20:35:00,69.3,61.8,29.88,SSE,157,0.0,-999.0,77,-99.99,,,0.00,Acu-Link.com,2013-08-12 01:35:00,
2013-08-11 21:06:00,66.7,60.0,29.88,SSW,202,0.0,-999.0,79,-99.99,,,0.00,Acu-Link.com,2013-08-12 02:06:00,
2013-08-11 21:21:00,65.8,59.8,29.89,South,180,0.0,-999.0,81,-99.99,,,0.00,Acu-Link.com,2013-08-12 02:21:00,
2013-08-11 21:36:00,65.1,59.1,29.89,South,180,0.0,-999.0,81,-99.99,,,0.00,Acu-Link.com,2013-08-12 02:36:00,
2013-08-11 22:06:00,63.9,58.3,29.90,SW,225,0.0,-999.0,82,-99.99,,,0.00,Acu-Link.com,2013-08-12 03:06:00,
2013-08-11 22:37:00,62.8,57.2,29.90,South,180,0.0,-999.0,82,-99.99,,,0.00,Acu-Link.com,2013-08-12 03:37:00,
2013-08-11 23:07:00,61.9,56.7,29.90,SW,225,0.0,-999.0,83,-99.99,,,0.00,Acu-Link.com,2013-08-12 04:07:00,
2013-08-11 23:22:00,61.3,56.4,29.90,SW,225,0.0,-999.0,84,-99.99,,,0.00,Acu-Link.com,2013-08-12 04:22:00,
2013-08-11 23:38:00,61.0,56.1,29.91,SW,225,0.0,-999.0,84,-99.99,,,0.00,Acu-Link.com,2013-08-12 04:38:00,
2013-08-11 23:53:00,60.6,55.7,29.91,SW,225,0.0,-999.0,84,-99.99,,,0.00,Acu-Link.com,2013-08-12 04:53:00,